Tracking 29892 objects as of 21-Nov-2024
HD Live streaming from Space Station
objects crossing your sky now

STARLINK-4625

Track STARLINK-4625 now!
10-day predictions


NORAD ID: 53683
Int'l Code: 2022-105AM
Perigee: 568.8 km
Apogee: 571.5 km
Inclination: 97.7 °
Period: 95.9 minutes
Semi major axis: 6941 km
RCS: Unknown
Launch date: August 31, 2022
Source: United States (US)
Launch site: AIR FORCE WESTERN TEST RANGE (AFWTR)
Your satellite tracking list
Your tracking list is empty




NASA's NSSDC Master Catalog

Two Line Element Set (TLE):
1 53683U 22105AM  24324.63413904  .00000933  00000-0  77221-4 0  9998
2 53683  97.6556 203.2348 0001897  94.0373 266.1068 15.01257536121961
Source of the keplerian elements: AFSPC